Scottsdale, AZ

12:28 PM MST on November 23, 2017 (GMT -0700)
Scottsdale

Weather History for KSDL - September, 2012

Change the Weather History Date:

Sunday, September 30, 2012

  Actual Average Record
Temperature  
Mean Temperature 85 °F -  
Max Temperature 99 °F 91 °F 104 °F (2010)
Min Temperature 71 °F 69 °F 62 °F (2014)
Cooling Degree Days 20    
Growing Degree Days 35 (Base 50)    
Moisture  
Dew Point 42 °F    
Average Humidity 25    
Maximum Humidity 51    
Minimum Humidity 10    
Precipitation  
Precipitation 0.00 in - - ()
Sea Level Pressure  
Sea Level Pressure 29.85 in    
Wind  
Wind Speed 2 mph (NW)    
Max Wind Speed 8 mph    
Max Gust Speed -    
Visibility 10 miles    
Events      
Averages and records for this station are not official NWS values.
T = Trace of Precipitation, MM = Missing Value Source: NWS Daily Summary

Daily Weather History Graph

Daily Weather History Graph

Search for Another Location

Airport or City:

Trip Planner

Search our weather history database for the weather conditions in past years. The results will help you decide how hot, cold, wet, or windy it might be!

Date:

Astronomy

Sep. 30, 2012 Rise Set
Actual Time 6:21 AM MST 6:12 PM MST
Civil Twilight 5:56 AM MST 6:37 PM MST
Nautical Twilight 5:27 AM MST 7:06 PM MST
Astronomical Twilight 4:58 AM MST 7:35 PM MST
Moon 6:23 PM MST (9/30) 6:51 AM MST (9/30)
Length of Visible Light 12h 40m
Length of Day
11h 50m
Full, 100% of the Moon is Illuminated
Sep 30
Full
Oct 8
Last Quarter
Oct 15
New
Oct 21
First Quarter
Oct 29
Full

Hourly Weather History & Observations

Time (MST) Temp. Dew Point Humidity Pressure Visibility Wind Dir Wind Speed Gust Speed Precip Events Conditions
12:53 AM 78.1 °F 53.1 °F 42% 29.86 in 10.0 mi Calm Calm - N/A   Clear
1:53 AM 77.0 °F 50.0 °F 39% 29.86 in 10.0 mi NE 5.8 mph - N/A   Clear
2:53 AM 73.9 °F 51.1 °F 45% 29.86 in 10.0 mi Calm Calm - N/A   Clear
3:53 AM 73.0 °F 51.1 °F 46% 29.86 in 10.0 mi Calm Calm - N/A   Clear
4:53 AM 72.0 °F 52.0 °F 49% 29.86 in 10.0 mi Calm Calm - N/A   Clear
5:53 AM 72.0 °F 51.1 °F 48% 29.88 in 10.0 mi Calm Calm - N/A   Clear
6:53 AM 71.1 °F 52.0 °F 51% 29.90 in 10.0 mi Calm Calm - N/A   Clear
7:53 AM 77.0 °F 50.0 °F 39% 29.92 in 10.0 mi Calm Calm - N/A   Clear
8:53 AM 81.0 °F 50.0 °F 34% 29.93 in 10.0 mi Calm Calm - N/A   Clear
9:53 AM 86.0 °F 46.9 °F 26% 29.92 in 10.0 mi Calm Calm - N/A   Clear
10:53 AM 90.0 °F 42.1 °F 19% 29.91 in 10.0 mi Calm Calm - N/A   Clear
11:53 AM 93.0 °F 44.1 °F 18% 29.89 in 10.0 mi Variable 4.6 mph - N/A   Clear
12:53 PM 95.0 °F 42.1 °F 16% 29.86 in 10.0 mi West 3.5 mph - N/A   Clear
1:53 PM 98.1 °F 39.9 °F 13% 29.83 in 10.0 mi SW 6.9 mph - N/A   Clear
2:53 PM 99.0 °F 34.0 °F 10% 29.81 in 10.0 mi West 8.1 mph - N/A   Clear
3:53 PM 99.0 °F 36.0 °F 11% 29.79 in 10.0 mi Variable 5.8 mph - N/A   Clear
4:53 PM 99.0 °F 34.0 °F 10% 29.78 in 10.0 mi SW 4.6 mph - N/A   Clear
5:53 PM 98.1 °F 34.0 °F 11% 29.78 in 10.0 mi WSW 5.8 mph - N/A   Clear
6:53 PM 93.9 °F 35.1 °F 13% 29.78 in 10.0 mi West 3.5 mph - N/A   Clear
7:53 PM 91.0 °F 37.0 °F 15% 29.80 in 10.0 mi NNE 5.8 mph - N/A   Clear
8:53 PM 91.0 °F 36.0 °F 14% 29.82 in 10.0 mi NNE 5.8 mph - N/A   Clear
9:53 PM 87.1 °F 37.0 °F 17% 29.83 in 10.0 mi Calm Calm - N/A   Clear
10:53 PM 87.1 °F 26.1 °F 11% 29.81 in 10.0 mi NNE 3.5 mph - N/A   Clear
11:53 PM 84.9 °F 26.1 °F 12% 29.81 in 10.0 mi North 4.6 mph - N/A   Clear